Location: Bijele Vode
(45.2833°N, 16.2000°E)
Time: 01:25:23
(UTC+00:00)

Lacrosse 5 rocket - Pass Details

Date: 18 September 2020
Orbit: 460 x 636 km, 57.0° (Epoch: 26 October)

Event Time Altitude Azimuth Distance (km) Brightness Sun altitude
Rises 18:07:58 0° 270° (W) 2,737 6.5 -12.7°
Reaches altitude 10° 18:10:29 10° 284° (WNW) 1,877 5.5 -13.1°
Maximum altitude 18:14:02 25° 341° (NNW) 1,213 3.5 -13.7°
Drops below altitude 10° 18:17:45 10° 37° (NE) 1,965 3.9 -14.3°
Enters shadow 18:19:30 - 47° (NE) 2,558 4.4 -14.6°
